Temp_Advection
nan nan nan nan nan nan nan nan nan nan nan nan nan nan nan nan nan nan nan nan nan nan nan nan nan nan nan nan nan nan nan nan nan nan nan nan nan nan nan nan nan nan nan nan nan nan nan nan nan nan nan nan nan nan nan nan nan nan nan nan nan nan nan nan nan nan nan nan nan
nan -1 -1 -1 -1 -1 -1 -1 -1 -1 -1 -1 -1 -1 -1 -1 -1 -1 -1 -1 -1 -1 -1 -1 -1 -1 -1 -1 -1 -1 -1 -1 -1 -1 -1 -0 -0 0 0 1 1 1 1 1 0 0 0 1 1 0 0 -0 -0 -1 -1 -1 -1 -0 0 -0 0 0 0 0 0 -0 -1 -1 nan
nan -1 -1 -1 -1 -2 -2 -2 -2 -1 -1 -1 -1 -1 -0 -0 -0 -0 -0 -0 -0 -0 -0 -1 -1 -1 -1 -1 -1 -1 -1 -1 -1 -1 -1 -1 -1 -1 -1 -0 -0 0 1 1 1 1 1 0 0 0 0 0 0 0 0 -0 -0 -0 -0 -0 0 1 1 0 -0 -0 -0 -0 nan
nan -1 -1 -1 -1 -1 -1 -1 -1 -1 -1 -1 -1 -1 -1 -0 -0 -0 -0 -0 -0 -0 -0 -0 -0 -0 -0 -0 -1 -1 -1 -1 -1 -1 -1 -1 -1 -1 -1 -1 -1 -1 -0 -0 0 1 1 1 0 0 0 -0 0 0 0 0 -0 -0 -0 -0 0 0 0 -0 -0 0 -0 0 nan
nan -0 0 0 0 0 -0 -0 -0 -0 -0 -0 -1 -1 -1 -1 -1 -0 -0 -0 -0 -0 -1 -0 -0 -0 -0 -0 -0 -0 -0 -0 -1 -1 -1 -1 -1 -1 -2 -2 -1 -1 -1 -1 -1 -0 0 0 0 0 0 0 0 -0 0 -0 -0 -0 -0 0 0 0 0 0 0 1 0 -0 nan
nan 0 0 0 0 0 0 0 0 0 0 -0 -0 -0 -1 -1 -1 -1 -1 -1 -1 -1 -1 -1 -1 -1 -1 -1 -1 -1 -1 -1 -1 -1 -1 -1 -1 -1 -1 -1 -2 -2 -2 -2 -1 -1 -1 -1 -1 -0 -0 0 0 0 0 0 -0 -0 -0 -0 -0 -0 -0 0 0 1 1 1 nan
nan -0 -0 -0 0 0 0 0 0 0 0 0 -0 -0 -0 -1 -1 -1 -1 -1 -1 -1 -1 -1 -1 -1 -1 -1 -1 -1 -1 -1 -1 -1 -0 -0 -0 -1 -1 -1 -1 -1 -2 -2 -2 -2 -2 -1 -2 -2 -1 -1 -1 -0 -0 -0 0 -0 -0 -0 -0 -0 -0 -0 -0 -0 0 1 nan
nan -1 -1 -1 -1 -1 -1 -0 -0 -0 -0 -0 -0 -0 -0 -1 -1 -1 -1 -1 -1 -1 -1 -1 -1 -1 -1 -1 -1 -1 -1 -1 -1 -1 -0 -0 -0 -0 -0 -0 -1 -1 -1 -1 -1 -1 -1 -2 -2 -2 -2 -2 -2 -2 -1 -1 -1 -1 -1 -1 -0 -0 -0 -0 -0 -1 -1 -1 nan
nan -1 -1 -1 -1 -1 -1 -1 -1 -1 -1 -1 -1 -1 -0 -1 -1 -1 -1 -1 -1 -1 -1 -1 -1 -1 -1 -1 -1 -1 -1 -1 -1 -1 -1 -1 -1 -0 -0 -0 -0 -0 -0 -0 -0 -1 -1 -1 -1 -1 -2 -2 -2 -2 -2 -2 -2 -2 -2 -2 -1 -1 -0 0 0 -0 -0 -1 nan
nan -1 -1 -1 -1 -1 -1 -1 -1 -1 -1 -1 -1 -1 -0 -0 -0 -1 -1 -1 -1 -1 -1 -1 -1 -1 -1 -1 -1 -1 -1 -1 -1 -1 -1 -1 -1 -1 -1 -1 -1 -1 -0 -0 -0 -0 -0 -0 -1 -1 -1 -1 -1 -1 -2 -2 -2 -2 -2 -2 -2 -2 -2 -1 -1 0 0 0 nan
nan -1 -1 -1 -1 -1 -1 -1 -1 -1 -1 -1 -1 -0 -0 -0 -0 -0 -0 -0 -0 -0 -0 -0 -0 -1 -1 -1 -1 -1 -1 -1 -2 -2 -2 -2 -2 -2 -1 -1 -1 -1 -1 -1 -0 -0 0 0 -0 -0 -1 -1 -1 -1 -1 -1 -1 -1 -1 -1 -1 -1 -2 -2 -1 -1 -1 -0 nan
nan -1 -1 -1 -1 -1 -1 -1 -1 -1 -0 -0 -0 -0 -0 -0 0 0 0 0 -0 -0 0 0 -0 -0 -0 -1 -1 -1 -1 -1 -1 -2 -2 -2 -2 -2 -2 -2 -2 -2 -1 -1 -1 -0 -0 -0 -0 -0 -1 -1 -1 -1 -1 -1 -1 -1 -1 -1 -1 -1 -1 -1 -1 -1 -1 -1 nan
nan -1 -1 -1 -1 -1 -1 -1 -1 -1 -1 -1 -0 -0 -0 -0 0 0 0 0 0 0 0 0 0 0 0 0 -0 -0 -0 -1 -1 -1 -1 -1 -2 -2 -2 -2 -2 -2 -2 -2 -1 -1 -1 -0 -0 -1 -1 -1 -1 -1 -1 -1 -1 -1 -1 -1 -1 -1 -1 -1 -1 -1 -1 -1 nan
nan -1 -1 -1 -1 -1 -1 -1 -1 -1 -1 -1 -1 -1 -1 -0 -0 -0 0 0 0 -0 -0 0 0 0 1 1 0 0 0 -0 -0 -0 -1 -1 -1 -1 -1 -1 -2 -2 -2 -2 -2 -1 -1 -1 -1 -1 -1 -1 -1 -1 -1 -1 -1 -1 -1 -1 -1 -1 -1 -1 -1 -1 -1 -1 nan
nan -1 -1 -1 -1 -1 -1 -1 -1 -1 -1 -1 -1 -1 -1 -1 -1 -1 -0 -0 -0 -0 -0 -0 -0 -0 0 1 0 0 0 0 0 -0 -0 -0 -0 -1 -1 -1 -1 -1 -1 -1 -1 -1 -1 -1 -1 -1 -1 -1 -1 -1 -1 -1 -1 -1 -1 -1 -1 -1 -1 -1 -1 -1 -1 -1 nan
nan -1 -1 -1 -1 -1 -1 -1 -1 -1 -1 -1 -1 -1 -1 -1 -1 -1 -1 -1 -1 -1 -1 -1 -1 -1 -1 -0 0 0 0 0 0 0 -0 -0 -0 -0 -1 -1 -1 -1 -1 -1 -1 -1 -1 -1 -1 -1 -1 -1 -1 -1 -1 -1 -1 -1 -1 -1 -0 -1 -1 -1 -1 -1 -1 -1 nan
nan -1 -1 -1 -1 -1 -1 -1 -1 -1 -1 -1 -1 -1 -1 -1 -2 -1 -1 -1 -1 -1 -1 -1 -1 -1 -1 -1 -0 -0 -0 -0 -0 -0 -0 -0 -0 -0 -0 -0 -1 -1 -1 -1 -1 -1 -1 -1 -1 -1 -1 -1 -1 -1 -1 -1 -1 -1 -1 -1 -0 -0 -0 -1 -1 -1 -1 -1 nan
nan -1 -1 -1 -1 -1 -1 -1 -1 -1 -1 -1 -1 -1 -1 -1 -1 -1 -1 -1 -1 -1 -1 -1 -1 -1 -1 -1 -1 -1 -0 -1 -1 -0 -0 -0 0 0 -0 -0 -0 -0 -0 -0 -1 -1 -1 -1 -1 -1 -1 -1 -1 -1 -1 -1 -1 -1 -1 -1 -1 -1 -1 -1 -1 -1 -1 -1 nan
nan -1 -1 -1 -1 -1 -1 -1 -1 -1 -1 -1 -1 -1 -1 -1 -1 -1 -1 -1 -1 -1 -1 -2 -2 -1 -1 -1 -1 -1 -0 -1 -1 -1 -0 -0 -0 0 0 -0 -0 -0 -0 -0 -1 -1 -1 -1 -1 -1 -1 -1 -1 -1 -1 -1 -1 -1 -1 -1 -1 -1 -1 -1 -1 -1 -1 -1 nan
nan -1 -1 -1 -1 -1 -1 -1 -1 -1 -1 -1 -1 -1 -1 -1 -1 -1 -1 -1 -1 -1 -1 -1 -2 -2 -2 -1 -1 -1 -1 -1 -1 -1 -1 -1 -1 -0 -0 -0 -0 -0 -0 -0 -0 -0 -1 -1 -1 -1 -1 -1 -1 -1 -1 -1 -1 -1 -1 -1 -1 -1 -1 -1 -1 -1 -1 -1 nan
nan -1 -1 -1 -1 -1 -1 -1 -1 -1 -1 -1 -1 -1 -1 -1 -1 -1 -1 -1 -1 -1 -1 -1 -1 -2 -2 -2 -2 -2 -1 -1 -1 -1 -1 -1 -1 -1 -1 -1 -1 -1 -0 -0 -0 -0 -0 -0 -1 -1 -1 -1 -1 -1 -1 -1 -1 -1 -1 -1 -1 -1 -1 -1 -1 -1 -1 -1 nan
nan -1 -1 -1 -1 -1 -1 -1 -1 -1 -1 -1 -1 -1 -1 -1 -1 -1 -1 -1 -1 -1 -1 -1 -1 -1 -1 -2 -2 -2 -2 -1 -1 -1 -1 -1 -1 -1 -1 -1 -1 -1 -1 -1 -1 -0 -0 -0 -0 -0 -1 -1 -1 -1 -1 -1 -1 -1 -1 -1 -1 -1 -1 -1 -1 -1 -1 -1 nan
nan -1 -1 -1 -1 -1 -1 -1 -1 -1 -1 -1 -1 -1 -1 -1 -1 -1 -1 -1 -1 -1 -1 -1 -1 -1 -1 -1 -1 -1 -1 -2 -2 -1 -1 -1 -1 -1 -1 -1 -1 -1 -1 -1 -1 -1 -0 -0 -0 -0 -1 -1 -1 -1 -1 -1 -1 -1 -1 -1 -1 -1 -1 -1 -1 -1 -1 -1 nan
nan -1 -1 -1 -1 -1 -1 -1 -1 -1 -1 -1 -1 -1 -1 -1 -1 -1 -1 -1 -1 -1 -1 -1 -1 -1 -1 -1 -1 -1 -1 -1 -2 -2 -2 -2 -1 -2 -1 -1 -1 -1 -1 -1 -1 -1 -0 -0 -0 -1 -1 -1 -1 -1 -1 -1 -1 -1 -1 -1 -1 -1 -1 -1 -1 -1 -1 -1 nan
nan -1 -1 -1 -1 -0 -0 -0 -0 -1 -1 -1 -1 -1 -1 -1 -1 -1 -1 -1 -1 -1 -1 -1 -1 -1 -1 -1 -1 -1 -1 -1 -1 -1 -2 -2 -1 -1 -1 -1 -1 -1 -1 -1 -1 -1 -1 -0 -0 -0 -0 -1 -1 -1 -1 -1 -1 -1 -1 -1 -1 -1 -1 -1 -1 -1 -1 -1 nan
nan -1 -1 -0 -0 -0 -0 -0 -0 -0 -0 -1 -1 -1 -1 -1 -1 -1 -1 -1 -1 -1 -1 -1 -1 -1 -1 -1 -1 -1 -1 -1 -1 -1 -1 -1 -1 -1 -1 -1 -1 -1 -1 -1 -1 -1 -1 -1 -0 -0 -0 -0 -1 -1 -1 -1 -1 -1 -1 -1 -1 -1 -1 -1 -1 -1 -1 -1 nan
nan -0 -0 -0 -0 -0 -0 -0 -0 -0 -1 -1 -1 -1 -1 -1 -1 -1 -1 -1 -1 -1 -1 -1 -1 -1 -1 -1 -1 -1 -1 -1 -1 -1 -1 -1 -1 -1 -1 -1 -1 -1 -1 -1 -1 -1 -1 -1 -1 -0 -0 -0 -0 -1 -1 -1 -1 -1 -1 -1 -1 -1 -1 -1 -1 -1 -1 -1 nan
nan -0 -0 -0 -0 -0 -0 -0 -1 -1 -1 -1 -1 -1 -1 -1 -1 -1 -1 -1 -1 -1 -1 -1 -1 -1 -1 -1 -1 -1 -1 -1 -1 -1 -1 -1 -1 -1 -1 -1 -1 -1 -1 -1 -1 -1 -1 -1 -1 -1 -0 -0 -0 -0 -0 -0 -1 -1 -0 -0 -0 -1 -1 -1 -1 -1 -1 -1 nan
nan -0 -0 -1 -1 -1 -1 -1 -1 -1 -1 -1 -1 -1 -1 -1 -1 -1 -1 -2 -2 -2 -2 -2 -2 -2 -1 -1 -1 -1 -1 -1 -1 -1 -1 -1 -1 -1 -1 -1 -1 -1 -1 -1 -1 -1 -1 -1 -1 -1 -1 -0 -0 -1 -1 -0 -0 -0 -0 -0 -0 -0 -0 -0 -0 -0 -1 -1 nan
nan -1 -1 -1 -1 -1 -1 -1 -1 -1 -1 -1 -1 -1 -1 -1 -2 -2 -2 -2 -2 -2 -2 -2 -2 -2 -2 -2 -2 -2 -2 -2 -1 -1 -1 -1 -1 -1 -1 -1 -1 -1 -1 -1 -1 -1 -1 -1 -1 -1 -1 -0 -0 -0 -0 -0 -0 -0 -0 -0 -0 -0 -0 -0 -0 -0 -1 -1 nan
nan -1 -1 -1 -1 -1 -1 -1 -1 -1 -1 -1 -1 -1 -1 -2 -2 -2 -2 -2 -2 -2 -1 -2 -2 -2 -2 -2 -2 -2 -2 -2 -2 -2 -1 -1 -1 -1 -1 -1 -1 -1 -1 -1 -1 -1 -1 -1 -1 -1 -1 -0 -0 -0 -0 -0 -0 -0 -0 -0 -0 -0 -0 -0 -0 -1 -1 -1 nan
nan -1 -1 -1 -1 -1 -1 -1 -1 -1 -1 -1 -1 -1 -1 -1 -1 -1 -1 -1 -1 -1 -2 -1 -2 -2 -2 -2 -2 -2 -2 -2 -2 -2 -2 -1 -1 -1 -1 -1 -1 -1 -1 -1 -1 -1 -1 -1 -1 -1 -1 -0 -0 -0 -0 -0 -0 -0 -0 -0 -0 -0 -0 -0 -0 -1 -1 -1 nan
nan -1 -1 -1 -1 -1 -1 -1 -1 -1 -1 -1 -1 -1 -1 -1 -1 -1 -1 -1 -1 -1 -1 -1 -1 -1 -1 -1 -1 -2 -2 -2 -2 -2 -2 -2 -2 -1 -1 -1 -1 -1 -1 -1 -1 -1 -1 -1 -1 -1 -1 -0 -0 -0 -0 -0 -0 -0 -0 -0 -0 -0 -0 -0 -0 -1 -1 -1 nan
nan -1 -1 -1 -1 -1 -1 -1 -1 -1 -1 -1 -1 -0 -0 -1 -1 -1 -1 -1 -1 -1 -1 -1 -1 -1 -1 -1 -1 -1 -1 -2 -2 -2 -2 -2 -2 -2 -1 -1 -1 -1 -1 -1 -1 -1 -1 -1 -1 -1 -1 -0 -0 -1 -1 -0 -0 -0 -0 -0 -0 -0 -1 -1 -1 -1 -1 -1 nan
nan -1 -1 -1 -1 -1 -1 -1 -1 -1 -1 -1 -1 -0 -0 -0 -0 -1 -1 -1 -0 -1 -1 -1 -1 -0 -1 -1 -1 -1 -1 -1 -2 -2 -2 -2 -2 -1 -2 -1 -1 -1 -1 -1 -1 -1 -1 -1 -1 -1 -1 -1 -1 -1 -1 -1 -1 -1 -0 -0 -0 -1 -1 -1 -1 -1 -1 -1 nan
nan -1 -1 -1 -1 -1 -1 -1 -1 -1 -1 -1 -1 -1 -1 -0 -0 -0 -1 -1 -1 -0 -1 -1 -1 -1 -1 -1 -1 -1 -1 -1 -1 -1 -1 -1 -1 -1 -1 -2 -2 -1 -1 -1 -1 -1 -1 -1 -1 -1 -1 -1 -1 -1 -1 -1 -1 -1 -1 -1 -0 -0 -0 -0 -1 -1 -1 -1 nan
nan -0 -0 -1 -1 -1 -1 -1 -1 -1 -0 -0 -1 -1 -1 -1 -1 -0 -0 -1 -1 -1 -1 -1 -1 -1 -1 -1 -1 -1 -1 -1 -1 -1 -1 -1 -1 -1 -1 -2 -2 -2 -1 -1 -1 -1 -1 -1 -1 -1 -1 -1 -1 -1 -1 -1 -1 -1 -1 -1 -0 -0 -0 -0 -0 -1 -1 -1 nan
nan -0 -0 -0 -1 -1 -0 -1 -1 -1 -1 -0 -0 -0 -1 -1 -1 -1 -0 -0 -1 -1 -1 -1 -1 -1 -1 -1 -1 -1 -1 -1 -1 -1 -1 -1 -1 -1 -1 -1 -2 -2 -2 -1 -1 -1 -1 -1 -1 -1 -1 -1 -1 -1 -1 -1 -1 -1 -1 -1 -0 -0 -0 -0 -0 -1 -1 -1 nan
nan -0 -0 -0 -1 -1 -1 -0 -0 -0 -1 -1 -1 -1 -1 -1 -1 -1 -0 -0 -0 -1 -1 -1 -1 -1 -1 -1 -1 -1 -1 -1 -1 -1 -1 -1 -1 -1 -1 -1 -2 -2 -2 -1 -1 -1 -1 -1 -1 -1 -1 -1 -1 -1 -1 -1 -1 -1 -1 -1 -0 -0 -0 -0 -0 -1 -1 -2 nan
nan -0 -0 -0 -0 -1 -1 -0 -0 -0 -0 -1 -1 -1 -1 -1 -1 -1 -1 -0 -0 -0 -1 -1 -1 -1 -1 -0 -1 -1 -1 -1 -1 -1 -1 -1 -1 -1 -1 -1 -1 -2 -2 -1 -1 -1 -1 -1 -1 -1 -1 -1 -1 -1 -1 -1 -1 -1 -1 -1 -1 -1 -1 -1 -1 -1 -1 -2 nan
nan nan nan nan nan nan nan nan nan nan nan nan nan nan nan nan nan nan nan nan nan nan nan nan nan nan nan nan nan nan nan nan nan nan nan nan nan nan nan nan nan nan nan nan nan nan nan nan nan nan nan nan nan nan nan nan nan nan nan nan nan nan nan nan nan nan nan nan nan
Wind_Speed
14 14 15 16 16 17 17 17 18 18 19 19 18 17 16 15 16 16 16 16 16 15 15 14 14 14 15 15 15 16 16 17 17 18 18 19 20 20 21 22 22 23 24 24 25 25 26 27 28 29 30 31 32 33 35 36 37 38 37 36 36 36 37 37 37 36 36 37 40
14 14 15 15 16 17 18 19 19 20 20 20 18 17 15 15 15 16 16 16 16 16 16 16 16 16 16 17 17 17 18 18 19 19 19 20 20 20 21 21 22 22 23 24 24 25 26 26 27 28 28 29 30 31 32 33 35 37 38 38 39 39 38 38 36 35 36 37 38
14 14 14 15 17 18 19 20 20 21 21 21 19 17 15 14 14 15 15 16 17 17 17 17 17 18 18 19 19 20 20 21 22 22 22 22 22 21 21 22 22 23 23 23 24 25 25 26 26 27 28 29 30 31 32 32 33 34 36 37 39 39 38 38 37 37 37 38 38
13 13 14 15 16 17 18 19 20 21 21 21 21 19 17 15 14 15 15 17 18 19 19 19 19 19 20 20 21 22 23 23 24 24 24 23 23 23 23 23 23 23 23 23 24 24 24 25 25 26 27 28 30 31 32 33 33 33 34 35 36 37 38 38 38 38 39 39 37
13 12 12 13 14 15 16 18 19 20 21 22 22 22 20 18 17 17 18 19 19 20 20 20 20 20 21 22 22 23 24 24 24 24 24 23 23 23 23 23 23 23 24 24 24 24 24 24 24 25 26 26 28 29 30 31 32 33 33 34 35 36 37 38 38 38 37 37 36
13 12 12 12 13 14 16 17 19 20 22 23 24 24 23 22 21 21 21 21 21 21 21 21 21 21 22 23 23 24 24 24 24 24 23 23 23 23 23 24 24 24 24 24 24 24 24 24 24 25 25 25 26 27 27 28 29 30 31 32 33 35 36 37 38 39 39 40 39
14 13 13 14 15 16 17 19 20 22 23 25 25 25 25 25 24 24 23 23 22 22 21 21 22 22 23 23 24 24 25 25 25 24 24 24 24 24 24 25 25 25 25 26 25 25 25 25 26 26 26 26 26 26 25 25 26 27 28 30 32 34 35 36 37 38 39 40 41
16 16 16 16 17 18 20 21 22 24 25 26 26 26 26 26 26 26 25 24 23 23 22 22 22 23 23 24 24 25 25 26 26 26 26 25 25 25 25 26 26 27 27 27 27 27 27 27 28 28 28 28 28 27 26 26 26 27 28 29 30 31 33 34 35 36 37 38 39
19 18 19 19 20 21 22 23 24 25 26 26 27 27 27 27 27 26 26 25 24 24 24 23 24 24 24 25 25 26 26 27 27 27 27 27 27 27 27 27 28 28 29 29 28 29 29 29 29 30 30 30 30 30 29 28 28 28 28 29 29 30 30 31 32 34 35 36 37
20 20 20 21 22 23 23 24 25 26 26 27 27 27 27 27 27 26 26 25 25 25 25 25 26 26 26 27 27 28 28 28 29 29 28 28 28 28 28 29 29 30 30 30 29 29 30 30 31 31 31 32 32 32 32 32 31 31 31 30 30 30 30 30 31 32 33 34 35
20 20 21 22 23 24 25 25 26 26 27 27 27 27 28 28 27 27 27 27 27 27 27 27 28 28 29 29 30 30 30 30 30 29 29 29 29 29 30 30 30 30 30 30 29 29 30 30 31 32 32 33 33 34 34 34 33 33 33 33 32 32 32 31 31 31 32 33 34
20 21 21 22 23 24 25 26 26 27 27 27 27 28 28 28 28 28 28 29 29 29 30 30 30 31 31 32 32 32 32 31 31 30 30 30 30 31 31 31 31 30 30 29 29 29 30 30 31 32 33 33 33 34 34 34 34 34 34 34 33 33 33 32 32 31 31 32 33
20 21 21 22 24 25 25 26 27 27 27 27 28 28 28 29 29 29 30 30 31 32 32 33 33 33 34 34 34 34 33 33 32 31 31 31 32 32 32 32 31 30 30 29 29 29 30 31 31 32 33 34 34 33 33 33 33 33 34 34 33 33 33 32 32 31 31 31 32
20 21 22 23 24 25 25 26 27 27 28 28 28 28 29 29 30 30 31 32 33 33 34 34 35 35 35 35 35 35 34 34 33 33 33 33 33 33 33 33 32 31 30 29 29 29 30 31 31 32 33 33 33 33 32 32 32 32 32 32 32 32 32 31 31 31 30 31 31
20 21 22 23 24 24 25 26 27 27 28 28 28 29 29 30 30 31 32 33 33 34 35 35 36 36 36 36 36 36 35 35 35 35 35 35 35 35 34 33 32 31 30 30 30 30 30 31 31 32 32 32 32 32 31 31 31 30 30 30 30 30 30 30 30 30 30 30 31
20 21 22 22 23 24 25 26 27 27 28 28 29 29 30 30 31 32 33 34 34 35 35 35 36 36 36 36 36 36 36 36 36 36 37 37 37 36 35 33 32 31 31 31 31 31 30 30 31 31 31 31 31 31 31 30 30 29 29 29 29 29 29 29 29 29 30 30 31
20 21 21 22 23 24 25 26 27 27 28 29 30 30 31 32 32 33 33 34 34 35 35 35 35 35 36 36 35 35 36 36 36 36 37 37 37 36 35 34 33 32 31 31 31 31 31 30 30 30 30 30 30 30 30 30 30 29 29 29 29 30 30 30 30 30 30 31 32
20 21 21 22 23 24 25 26 27 28 29 29 30 31 32 33 33 34 34 34 34 34 34 34 34 34 34 34 34 34 34 35 36 36 36 36 36 35 34 34 33 32 32 32 32 32 31 30 30 29 29 29 30 30 30 31 31 31 31 31 31 31 31 31 31 32 32 32 33
20 21 21 22 23 24 25 26 27 28 29 30 31 32 33 33 34 34 33 33 32 32 32 33 33 33 33 33 33 33 33 34 34 35 35 34 34 34 34 33 33 32 32 32 32 32 31 31 30 29 29 30 30 31 32 32 33 33 33 33 33 33 33 33 33 33 33 33 34
21 21 22 22 23 24 25 26 27 28 29 31 32 32 33 33 33 32 32 31 31 31 31 31 32 32 32 32 32 32 32 32 33 33 33 33 33 33 33 33 33 33 33 33 33 32 32 32 31 31 31 31 32 33 33 34 34 34 35 35 35 35 35 35 35 35 35 35 36
21 22 22 23 24 25 26 27 28 29 30 31 31 31 31 31 30 30 30 30 30 30 30 30 30 31 31 31 31 31 31 31 31 31 31 31 31 31 31 32 32 32 33 33 33 33 33 33 33 33 34 34 34 35 35 35 35 36 36 36 36 36 36 36 36 36 37 37 37
21 22 23 23 24 25 26 27 28 29 29 30 29 29 29 28 28 28 28 28 29 29 29 29 29 30 30 30 31 31 31 30 30 30 30 30 30 30 30 30 31 32 33 33 33 33 34 35 35 35 36 36 36 36 36 36 36 36 37 37 37 37 37 37 38 38 38 38 38
22 22 23 24 25 26 26 27 28 28 28 27 27 27 27 27 27 28 28 28 28 28 29 29 29 29 29 29 30 30 30 30 29 29 28 29 29 29 30 30 31 32 33 33 33 34 35 36 36 37 37 37 37 37 36 36 36 37 37 38 38 38 38 38 38 39 39 39 39
22 23 23 24 25 26 26 26 26 26 26 26 27 27 27 28 28 28 28 28 28 28 29 29 29 29 29 29 29 29 29 29 29 29 29 28 29 29 30 30 31 32 33 33 33 34 34 36 37 37 37 37 36 36 36 37 37 37 38 38 39 39 39 39 39 39 39 38 38
22 23 23 24 25 25 25 26 26 26 27 27 28 28 28 29 29 29 29 29 29 29 29 29 29 29 29 29 28 28 27 28 28 29 30 30 30 30 31 31 32 32 33 33 33 33 34 34 35 35 35 35 35 36 37 37 38 38 38 38 38 38 38 39 39 39 38 38 37
22 23 24 24 25 25 26 26 27 28 28 29 29 30 30 30 30 30 30 30 30 30 30 29 29 29 29 28 28 27 27 27 28 29 30 31 31 32 32 32 33 33 33 33 33 33 33 33 33 33 33 34 35 36 37 38 38 38 38 38 37 37 37 37 38 38 38 38 37
23 24 25 25 26 26 27 28 29 29 30 31 31 31 31 31 31 31 31 31 31 30 30 30 29 29 28 28 28 28 28 28 28 29 30 32 32 33 33 33 33 33 33 34 34 33 33 32 31 31 32 33 35 36 37 38 38 38 37 37 36 36 36 36 37 38 38 38 38
24 25 26 27 27 28 29 30 31 31 32 32 32 33 33 33 33 32 32 32 31 31 30 30 29 28 28 28 28 28 28 29 29 30 31 32 32 33 33 33 33 33 34 34 34 33 33 32 31 31 32 33 35 36 37 37 37 37 36 36 36 36 36 37 37 38 38 39 40
26 27 28 28 29 30 31 31 32 32 33 33 33 33 33 33 33 33 33 32 32 31 30 30 29 28 28 28 28 28 29 30 30 31 32 32 32 32 32 33 33 34 34 34 34 33 32 31 31 31 32 33 34 35 36 36 36 35 35 35 36 36 37 37 38 38 39 40 41
27 28 29 30 30 31 32 32 32 33 33 33 33 33 33 33 33 33 32 32 32 31 30 29 29 28 28 28 29 30 31 31 31 31 32 32 32 32 32 33 33 34 34 34 34 33 32 32 32 32 33 33 34 34 35 35 35 35 35 36 36 37 37 38 38 39 40 40 41
28 29 30 30 31 31 32 32 32 32 32 32 32 32 32 32 32 32 32 32 31 31 30 29 29 29 29 29 30 31 32 32 32 32 32 32 32 32 33 33 34 34 34 34 33 33 32 32 32 32 33 33 34 34 34 34 34 35 35 36 36 37 37 38 39 39 39 39 39
29 29 30 31 31 31 32 32 32 32 32 32 32 31 31 31 31 31 31 31 31 31 30 30 30 30 30 31 32 33 33 33 33 32 32 32 32 33 33 34 34 35 34 34 33 33 32 32 32 32 33 33 33 34 34 34 34 34 35 35 36 37 38 38 38 38 37 36 36
29 29 30 30 31 31 31 31 31 31 31 31 31 31 31 31 31 31 30 30 30 30 31 31 31 32 32 33 34 34 35 34 33 33 32 32 32 33 34 35 35 35 34 33 33 33 33 32 33 32 32 32 33 33 34 34 34 35 35 36 37 37 37 37 36 35 35 34 34
29 29 29 30 30 30 30 30 30 30 30 30 30 30 30 30 30 30 30 30 30 30 30 31 31 32 33 33 34 35 35 35 34 33 33 33 33 34 35 35 35 34 34 33 33 33 33 33 33 32 32 32 32 33 33 34 34 35 36 36 37 37 36 35 34 33 33 33 33
28 29 29 29 29 29 30 30 30 30 30 30 30 30 30 29 29 29 30 30 30 30 30 31 31 32 33 34 34 35 35 35 35 34 34 34 34 35 35 35 35 34 33 33 33 33 33 33 33 32 31 31 31 32 33 33 34 35 36 36 37 37 35 34 33 33 33 34 35
27 28 28 29 29 29 29 30 30 30 30 30 30 30 30 29 29 29 29 29 30 31 31 32 32 33 34 35 35 35 35 35 35 35 34 34 34 35 36 36 35 34 33 33 33 33 33 33 33 32 31 31 31 31 32 33 33 34 35 36 36 35 34 33 33 34 35 36 38
27 27 28 28 28 29 29 29 30 30 30 30 30 29 29 29 29 29 29 29 31 31 32 33 34 35 35 36 36 36 35 35 35 35 34 34 34 35 36 36 35 34 33 33 33 33 33 33 32 31 31 30 30 31 31 32 32 33 34 34 34 34 33 33 34 35 37 39 40
27 27 27 28 28 29 29 29 30 30 30 30 30 29 29 29 30 30 30 30 31 32 33 34 35 36 36 36 36 36 35 34 34 34 34 34 34 34 35 36 36 35 34 33 33 33 32 32 32 31 30 30 30 31 31 31 31 32 32 32 33 33 33 34 35 37 39 41 42
27 27 27 28 28 29 29 29 29 29 30 30 30 30 29 30 30 30 30 30 31 32 34 35 36 36 36 36 36 36 35 34 33 32 33 33 33 34 35 36 36 35 34 33 32 32 31 31 31 30 30 30 30 31 31 31 31 31 31 31 32 33 34 35 37 39 41 43 44
27 27 28 28 28 29 29 30 29 29 29 30 30 30 30 30 30 30 31 31 32 33 34 35 36 36 36 35 35 36 35 34 33 32 32 33 34 34 34 35 35 34 33 32 31 31 31 30 30 30 30 30 31 31 31 32 32 31 31 31 32 33 35 37 39 41 43 44 44
27 28 28 28 28 29 29 30 30 30 29 29 29 30 30 30 31 31 32 32 33 33 34 35 36 36 35 35 35 35 35 34 33 32 32 33 34 34 34 34 34 33 32 31 30 30 30 30 30 30 30 31 32 32 32 32 32 32 32 32 33 34 36 38 41 43 44 45 45
Wind_Direction
12 9 6 3 0 358 356 356 356 356 357 357 357 356 354 352 349 347 345 344 342 341 338 335 332 328 325 322 319 316 314 312 311 309 307 305 303 302 300 299 300 301 303 305 307 309 310 310 309 306 302 298 293 289 287 285 282 279 277 275 274 273 272 270 268 267 266 266 266
7 4 1 357 354 351 349 348 349 350 352 354 354 354 352 348 344 341 339 337 336 334 332 330 327 324 321 319 317 315 314 314 313 312 311 309 307 306 304 303 301 301 301 301 301 302 304 305 307 308 307 305 303 300 297 294 291 288 286 284 282 280 277 275 274 272 271 269 267
2 360 357 354 350 347 345 344 344 345 347 350 351 350 347 343 339 335 332 329 328 328 327 326 324 322 319 317 316 315 314 314 315 314 313 312 310 308 307 306 305 304 303 302 302 302 302 302 302 303 304 303 302 301 299 297 296 295 294 293 290 287 282 279 279 278 276 274 271
359 357 355 352 348 344 342 340 340 341 342 344 346 346 343 338 333 329 325 323 323 324 324 323 321 319 318 316 315 315 315 316 317 317 317 316 314 312 310 309 307 306 305 305 304 304 303 303 303 302 302 301 299 297 296 296 295 295 295 295 294 291 287 283 281 280 279 277 275
357 353 350 347 343 339 335 334 335 336 337 339 341 342 341 339 334 330 326 324 323 323 323 322 320 318 317 316 316 317 318 319 320 321 321 320 319 318 316 315 313 311 309 308 306 305 305 304 304 303 303 302 300 299 298 298 297 296 295 294 293 292 289 286 284 283 283 282 280
355 349 343 339 335 332 329 329 330 332 333 335 338 340 341 340 338 335 332 330 328 326 325 324 322 320 319 319 319 320 321 322 323 323 323 322 321 321 321 320 319 318 317 315 312 311 309 308 306 304 303 302 302 301 301 301 300 298 296 293 291 290 290 289 289 289 289 288 287
354 348 341 337 333 331 331 331 331 331 332 334 337 339 340 340 339 338 336 334 332 330 328 327 325 324 323 323 324 324 325 325 325 324 323 322 321 321 321 321 321 321 320 320 318 317 315 314 311 309 306 305 304 303 302 302 300 298 294 291 289 289 289 289 289 289 290 290 290
353 349 344 340 337 335 334 333 333 333 333 335 336 338 338 338 338 338 337 336 334 332 330 328 326 325 325 325 326 326 327 327 326 325 324 323 322 321 321 321 321 321 320 320 320 319 318 317 315 313 312 310 308 307 305 303 301 298 295 293 291 290 289 289 289 289 289 289 289
351 349 346 343 339 337 336 335 334 334 334 334 335 336 336 337 337 337 336 335 333 331 329 327 326 325 325 325 325 326 327 327 327 326 326 325 324 323 323 323 322 321 321 320 319 318 317 316 315 314 313 313 312 311 310 308 306 303 301 298 296 294 293 292 291 290 290 289 288
349 347 344 342 339 337 335 334 333 333 333 333 333 334 334 335 336 336 335 333 331 329 328 327 326 325 325 325 325 326 327 327 327 327 327 326 326 325 325 324 324 323 321 320 319 317 316 315 314 313 313 312 312 312 311 311 310 308 306 304 301 300 298 296 294 293 292 291 290
347 345 342 339 337 335 333 332 331 331 331 331 331 331 331 332 333 333 332 330 329 328 328 327 327 326 326 326 326 326 327 327 327 327 326 326 326 325 325 325 324 323 322 321 320 318 316 314 314 313 312 312 312 311 311 311 310 310 308 307 305 304 302 300 298 297 296 295 293
344 342 339 337 334 332 331 329 328 328 328 328 328 328 328 329 329 329 328 328 328 327 327 327 327 327 326 326 327 327 328 328 327 327 326 325 325 324 324 324 323 323 322 321 320 318 316 314 313 313 313 312 312 311 311 311 311 310 309 308 307 306 304 303 301 300 299 298 297
341 338 336 333 331 329 327 326 326 325 325 326 326 325 325 326 326 326 326 326 326 326 325 325 325 325 326 326 327 327 328 328 327 326 325 324 324 323 323 323 322 321 320 319 318 317 315 313 313 312 312 312 312 312 312 312 312 311 310 309 308 306 305 304 303 301 300 298 297
337 335 333 330 328 326 325 324 324 323 323 323 323 323 323 323 323 323 324 324 324 323 323 323 323 323 324 325 326 326 327 327 327 326 325 324 323 323 322 322 321 320 319 317 316 314 313 312 311 311 311 312 312 313 314 314 313 312 311 310 308 306 304 303 301 300 299 297 295
334 332 330 327 326 324 323 323 322 322 322 322 322 321 321 321 321 321 322 322 321 321 321 321 321 321 322 322 324 324 325 325 325 325 324 323 323 323 322 322 321 320 318 316 314 313 311 310 310 310 311 312 313 314 315 315 314 313 312 310 309 307 305 304 302 301 299 298 297
332 330 327 325 324 323 322 321 321 320 320 320 320 320 320 320 320 320 320 320 320 319 319 319 320 320 320 321 322 323 323 324 324 324 323 323 323 323 322 322 321 320 318 316 314 312 311 309 309 310 311 312 314 315 315 315 314 313 311 310 310 309 307 306 305 304 303 302 301
330 328 325 324 322 321 320 320 319 319 319 319 319 319 319 320 320 319 319 319 319 319 318 318 318 319 319 320 320 321 322 322 322 322 322 322 322 322 322 321 320 319 318 316 315 313 312 311 310 311 312 314 315 315 314 313 312 311 310 309 309 308 307 306 305 304 303 301 300
327 325 324 322 321 320 319 318 317 317 317 317 318 318 318 319 319 318 318 318 318 318 318 318 318 318 319 319 320 321 321 321 321 321 321 321 321 321 320 320 319 318 317 316 315 314 314 314 314 314 315 315 314 313 312 311 310 309 308 307 306 305 305 304 303 302 300 299 298
325 324 323 321 320 318 317 316 316 316 316 316 317 317 317 318 318 318 318 318 319 319 319 319 319 319 319 319 319 319 320 320 320 319 319 319 319 319 319 319 318 317 317 316 316 316 316 317 318 318 317 315 313 312 311 310 309 308 308 307 306 305 305 303 302 301 300 299 299
323 323 322 320 318 317 316 315 315 315 316 316 316 317 317 318 318 319 320 320 321 321 321 320 320 319 319 319 319 319 319 319 319 319 318 318 318 318 318 318 317 317 316 316 316 317 318 319 319 319 317 315 313 312 311 310 309 309 308 308 307 307 306 305 304 303 302 302 302
323 322 320 319 317 316 316 315 315 316 316 317 318 319 319 320 322 323 323 323 323 323 323 322 321 321 320 320 319 319 319 319 319 318 318 317 317 317 317 317 316 316 315 316 316 317 318 319 319 318 316 315 314 313 312 311 310 310 309 308 308 307 307 306 306 305 304 304 304
323 321 319 318 317 317 317 317 318 319 319 320 322 323 325 326 328 328 328 327 327 326 325 324 323 322 321 320 319 319 318 318 317 317 317 317 316 316 316 316 316 315 315 316 316 316 317 317 317 316 316 316 315 314 314 313 312 311 310 310 309 308 308 307 307 307 306 306 306
322 321 320 319 320 320 321 322 323 324 326 328 330 332 333 334 334 333 332 331 330 329 328 326 324 323 322 320 319 318 317 317 317 316 316 316 316 316 316 316 316 316 315 315 316 316 316 316 316 316 316 316 316 316 316 315 314 313 312 311 311 310 309 308 308 308 308 308 308
324 323 323 323 324 326 327 329 330 332 335 337 338 338 338 338 337 336 335 334 333 331 330 328 326 324 322 321 319 318 317 317 317 317 317 317 316 316 316 316 316 315 315 314 314 315 315 315 316 316 317 317 318 318 317 316 315 315 314 313 313 312 311 310 309 309 309 309 309
327 327 328 329 330 332 333 335 337 339 340 341 341 340 340 340 339 338 337 336 334 333 331 329 328 326 324 322 320 318 317 317 317 317 317 317 316 316 316 315 315 314 314 313 313 314 314 314 315 316 318 319 319 319 318 317 316 315 315 314 314 313 312 311 310 310 310 310 309
332 332 333 334 335 336 338 339 340 340 340 340 340 340 339 339 339 338 337 336 335 334 332 331 329 327 325 323 321 319 318 318 318 317 317 316 315 315 314 314 313 313 312 312 313 313 313 314 315 316 319 320 320 319 318 317 316 315 315 315 315 314 314 313 312 312 311 310 310
336 336 336 337 337 338 339 340 339 339 339 339 338 338 338 338 337 337 336 335 334 333 332 331 330 329 327 325 323 321 320 319 318 317 316 315 314 313 313 312 312 311 311 311 312 313 313 314 316 317 319 321 320 319 318 316 316 315 315 315 315 315 315 315 315 314 313 312 312
338 338 338 337 338 338 338 338 338 338 338 337 337 337 336 336 336 336 335 334 334 333 332 331 330 329 327 326 324 322 321 319 318 316 315 314 313 312 312 311 311 310 310 310 311 312 313 315 316 318 319 320 319 318 317 316 315 315 315 315 316 316 316 316 316 316 315 315 315
339 338 338 337 337 337 337 337 337 337 337 336 336 335 335 335 335 335 334 333 333 333 332 331 330 329 328 326 324 322 321 319 317 316 314 313 313 312 312 311 311 310 310 310 310 311 313 315 316 317 318 318 317 316 315 315 315 315 315 316 316 317 317 317 317 317 317 316 316
338 337 337 337 336 336 336 337 336 336 336 335 335 335 335 335 334 334 333 333 332 332 331 330 329 328 327 325 324 322 320 318 317 316 315 314 314 313 313 312 311 310 310 310 311 312 313 314 315 316 316 316 316 315 314 314 314 314 314 315 316 317 317 317 317 317 316 316 316
337 336 336 336 336 336 336 336 336 336 335 335 335 335 335 335 334 334 333 332 331 331 330 330 329 327 326 324 322 320 318 317 316 316 316 315 315 314 313 312 311 311 311 311 312 313 314 314 314 315 315 315 315 314 313 313 313 313 313 314 315 316 316 316 316 315 316 316 316
336 336 336 336 336 336 336 336 336 336 336 336 336 336 336 335 334 333 333 332 331 331 330 330 329 327 325 323 321 319 317 317 317 317 317 316 315 314 313 312 312 311 312 312 313 314 314 315 314 315 315 315 314 313 312 312 312 312 312 313 314 314 315 315 315 315 315 316 316
336 336 336 336 337 337 337 337 337 337 337 337 337 337 336 335 334 333 333 333 332 331 331 330 329 327 325 322 320 318 318 318 318 318 317 316 315 314 313 312 312 312 313 314 315 316 316 316 315 315 315 314 313 312 311 311 311 312 312 313 313 314 314 315 315 315 316 316 317
336 337 337 338 338 338 339 339 339 339 338 338 338 338 337 336 335 334 333 333 332 331 330 329 327 325 322 321 319 319 319 319 319 319 318 317 315 314 314 313 313 314 315 317 317 318 318 317 317 316 315 314 312 311 311 310 311 311 312 313 314 315 315 316 316 316 316 316 317
338 338 339 339 339 340 340 340 340 340 340 339 339 338 338 337 336 335 334 333 332 331 329 327 325 323 322 321 320 321 321 321 320 320 319 318 317 316 315 315 316 317 318 319 319 320 319 319 318 317 316 314 313 312 311 311 311 311 312 313 315 316 317 317 316 315 315 316 316
340 340 340 340 340 341 341 341 341 341 340 340 340 339 338 337 336 335 335 334 332 330 328 327 325 324 323 322 322 322 322 321 321 320 319 319 319 318 318 318 319 320 321 321 321 321 321 321 320 319 317 316 314 313 313 312 312 312 313 315 316 317 317 316 315 315 315 316 317
341 341 341 341 341 341 342 341 341 341 341 340 340 339 338 337 336 335 335 334 332 329 328 326 325 324 323 323 323 322 322 321 321 320 320 321 321 321 321 322 322 322 323 323 323 323 323 323 322 321 320 318 317 316 316 315 315 315 316 316 317 316 316 315 315 315 316 317 319
342 342 341 341 341 341 341 341 341 341 341 340 339 339 338 337 335 335 334 333 331 328 326 325 324 324 323 323 322 322 321 321 321 322 322 322 323 323 324 323 323 323 324 324 324 324 324 324 324 323 323 322 321 321 321 320 320 319 319 318 317 316 315 315 315 316 317 318 320
343 342 342 341 341 341 341 341 341 341 340 339 338 338 337 336 335 334 333 332 329 327 325 324 323 323 323 323 322 321 321 322 323 323 323 324 324 324 323 323 323 323 324 325 325 325 324 324 324 324 324 325 325 326 326 325 324 322 321 319 318 316 316 316 317 317 318 319 320
342 342 342 341 341 341 340 340 340 340 339 338 337 337 336 334 333 332 332 330 328 326 324 323 323 323 323 323 322 322 322 322 323 324 324 324 323 323 322 321 321 322 323 324 324 323 322 321 321 322 324 325 327 328 328 328 326 324 322 320 319 319 318 318 318 318 319 320 321
342 342 341 341 341 340 339 339 338 338 338 337 336 335 334 333 332 331 330 329 327 326 324 323 323 323 323 323 323 322 322 323 324 324 324 323 322 321 320 320 320 321 322 323 322 320 318 317 317 318 320 323 325 326 328 329 328 326 324 322 322 321 321 321 320 319 319 320 322
Height
1474 1474 1473 1472 1472 1471 1471 1470 1469 1469 1468 1467 1466 1465 1464 1463 1462 1462 1461 1460 1459 1458 1457 1457 1456 1455 1454 1453 1452 1451 1450 1449 1448 1447 1446 1445 1444 1443 1442 1442 1441 1440 1438 1437 1436 1435 1434 1433 1432 1430 1429 1428 1427 1426 1425 1424 1423 1422 1421 1420 1419 1417 1416 1415 1414 1414 1413 1413 1412
1474 1473 1472 1472 1471 1471 1470 1469 1468 1467 1467 1466 1466 1465 1464 1462 1462 1461 1460 1459 1458 1458 1457 1456 1455 1454 1453 1452 1451 1450 1449 1448 1447 1446 1445 1444 1443 1442 1441 1440 1439 1438 1437 1436 1435 1434 1432 1431 1430 1429 1427 1426 1425 1424 1423 1422 1422 1420 1418 1417 1417 1416 1415 1413 1412 1411 1411 1410 1409
1473 1472 1472 1471 1470 1469 1468 1468 1467 1467 1466 1465 1465 1464 1463 1462 1461 1460 1459 1459 1458 1457 1456 1455 1454 1452 1452 1451 1450 1449 1448 1447 1446 1445 1444 1443 1442 1441 1440 1438 1437 1436 1435 1434 1433 1432 1431 1430 1428 1427 1426 1424 1423 1422 1421 1420 1420 1418 1417 1416 1415 1413 1412 1411 1410 1410 1409 1408 1407
1472 1472 1471 1470 1469 1469 1468 1467 1466 1466 1465 1464 1464 1463 1462 1462 1461 1460 1459 1458 1457 1456 1455 1454 1453 1452 1451 1450 1448 1447 1447 1446 1445 1443 1442 1441 1440 1439 1438 1437 1436 1435 1433 1432 1431 1430 1429 1428 1427 1425 1424 1423 1422 1420 1419 1418 1417 1417 1415 1414 1413 1412 1410 1409 1408 1408 1407 1405 1404
1472 1471 1471 1470 1469 1468 1467 1467 1466 1465 1464 1464 1463 1462 1462 1461 1460 1459 1458 1457 1456 1455 1454 1453 1452 1451 1450 1448 1447 1446 1445 1444 1443 1442 1441 1439 1438 1437 1436 1435 1434 1433 1432 1431 1429 1428 1427 1426 1424 1423 1422 1421 1419 1418 1417 1416 1415 1414 1413 1412 1411 1410 1409 1407 1406 1405 1404 1403 1402
1472 1471 1470 1469 1468 1467 1467 1466 1466 1465 1464 1463 1462 1461 1460 1459 1458 1458 1457 1456 1455 1454 1453 1452 1451 1449 1448 1447 1446 1445 1444 1442 1442 1440 1439 1438 1437 1436 1434 1433 1432 1431 1430 1429 1427 1426 1425 1424 1422 1421 1420 1419 1417 1416 1415 1414 1413 1412 1411 1410 1409 1408 1407 1406 1405 1404 1402 1401 1400
1471 1470 1470 1469 1468 1467 1467 1466 1465 1464 1463 1462 1461 1460 1459 1458 1457 1456 1455 1454 1453 1452 1451 1450 1449 1448 1447 1446 1444 1443 1442 1441 1440 1439 1437 1436 1435 1434 1433 1432 1430 1429 1428 1427 1426 1424 1423 1422 1420 1419 1417 1416 1415 1414 1413 1412 1412 1410 1409 1408 1407 1406 1405 1404 1403 1402 1401 1399 1398
1471 1470 1469 1468 1467 1467 1466 1465 1464 1463 1462 1461 1460 1459 1458 1457 1456 1455 1454 1453 1452 1451 1450 1449 1447 1447 1445 1444 1443 1442 1441 1440 1438 1437 1436 1435 1433 1432 1431 1430 1429 1427 1426 1425 1424 1422 1421 1420 1418 1417 1415 1414 1413 1412 1411 1410 1409 1408 1407 1405 1404 1403 1403 1402 1401 1400 1399 1397 1396
1469 1469 1468 1467 1467 1466 1465 1464 1463 1462 1461 1460 1459 1458 1457 1456 1455 1454 1452 1452 1451 1450 1448 1447 1446 1445 1444 1443 1442 1441 1439 1438 1437 1436 1435 1433 1432 1431 1430 1428 1427 1426 1425 1423 1422 1421 1419 1418 1417 1415 1414 1412 1411 1410 1409 1408 1407 1405 1404 1403 1402 1401 1400 1399 1398 1397 1397 1395 1394
1468 1468 1467 1466 1466 1465 1464 1463 1462 1461 1460 1459 1458 1457 1456 1455 1454 1453 1452 1451 1449 1448 1447 1446 1445 1444 1443 1442 1440 1439 1438 1437 1436 1434 1433 1432 1431 1429 1428 1427 1426 1424 1423 1422 1420 1419 1417 1416 1415 1413 1412 1411 1410 1408 1407 1406 1405 1403 1402 1401 1399 1398 1397 1396 1396 1395 1394 1393 1392
1468 1467 1466 1466 1465 1464 1463 1462 1461 1460 1459 1458 1457 1456 1455 1454 1453 1452 1451 1449 1448 1447 1446 1445 1444 1442 1441 1440 1439 1437 1436 1435 1434 1432 1431 1430 1429 1428 1427 1425 1424 1422 1421 1420 1418 1417 1416 1414 1413 1412 1410 1409 1408 1407 1405 1404 1402 1401 1400 1398 1397 1396 1395 1393 1393 1392 1391 1390 1388
1467 1467 1466 1465 1464 1463 1462 1461 1460 1459 1458 1457 1456 1455 1454 1452 1452 1450 1449 1448 1447 1446 1444 1443 1442 1441 1439 1438 1437 1436 1434 1433 1432 1431 1429 1428 1427 1426 1425 1423 1422 1421 1419 1418 1417 1415 1414 1412 1411 1410 1408 1407 1406 1405 1403 1402 1401 1399 1397 1396 1395 1394 1392 1391 1390 1389 1388 1387 1386
1467 1466 1465 1464 1463 1462 1461 1460 1459 1458 1457 1456 1455 1453 1452 1451 1450 1449 1448 1446 1445 1444 1442 1441 1440 1439 1438 1436 1435 1434 1432 1431 1430 1429 1427 1426 1425 1424 1422 1421 1420 1419 1417 1416 1415 1413 1412 1411 1409 1408 1406 1405 1404 1403 1402 1400 1399 1397 1396 1394 1393 1392 1390 1389 1388 1387 1386 1385 1384
1466 1465 1464 1463 1462 1461 1460 1459 1457 1457 1456 1455 1453 1452 1451 1450 1449 1448 1447 1445 1444 1442 1441 1440 1438 1437 1436 1435 1433 1432 1431 1429 1428 1427 1425 1424 1423 1422 1420 1419 1418 1417 1415 1414 1413 1412 1410 1409 1407 1406 1405 1403 1402 1401 1400 1398 1397 1395 1394 1392 1391 1389 1388 1387 1386 1385 1384 1382 1381
1465 1464 1463 1462 1461 1460 1459 1457 1456 1455 1454 1453 1452 1451 1450 1449 1448 1447 1445 1444 1442 1441 1440 1438 1437 1435 1434 1433 1432 1430 1428 1427 1426 1424 1423 1422 1420 1419 1418 1417 1415 1414 1413 1412 1411 1409 1408 1407 1406 1404 1403 1401 1400 1398 1397 1396 1395 1393 1392 1391 1389 1387 1386 1385 1383 1382 1381 1380 1378
1464 1463 1462 1461 1460 1458 1457 1457 1455 1454 1453 1452 1451 1450 1449 1448 1447 1445 1444 1442 1441 1440 1438 1437 1435 1433 1432 1431 1430 1428 1427 1425 1424 1422 1421 1419 1418 1417 1416 1414 1413 1412 1411 1409 1408 1407 1406 1405 1404 1402 1401 1399 1398 1397 1395 1394 1393 1391 1390 1388 1387 1385 1384 1382 1381 1380 1379 1378 1376
1463 1462 1461 1460 1459 1457 1457 1455 1454 1453 1452 1451 1450 1449 1448 1447 1445 1444 1443 1441 1440 1438 1437 1435 1434 1432 1431 1429 1428 1427 1425 1423 1422 1421 1419 1417 1416 1415 1413 1412 1411 1410 1408 1407 1406 1404 1403 1402 1401 1400 1399 1397 1396 1395 1393 1392 1390 1389 1388 1386 1385 1384 1382 1381 1380 1378 1377 1376 1375
1462 1461 1460 1459 1457 1457 1455 1454 1453 1452 1451 1450 1449 1447 1446 1445 1444 1442 1441 1440 1438 1437 1435 1433 1432 1431 1429 1427 1426 1425 1423 1422 1420 1419 1417 1416 1414 1413 1411 1410 1409 1407 1406 1405 1404 1402 1401 1400 1399 1398 1397 1395 1394 1392 1391 1389 1388 1387 1385 1384 1383 1382 1380 1379 1378 1377 1376 1374 1373
1461 1460 1458 1457 1456 1455 1454 1453 1452 1451 1450 1448 1447 1446 1445 1444 1442 1441 1439 1438 1437 1435 1434 1432 1430 1429 1427 1426 1424 1423 1422 1420 1419 1417 1416 1414 1412 1411 1409 1408 1407 1405 1404 1403 1402 1400 1399 1398 1397 1396 1395 1393 1391 1390 1388 1387 1385 1384 1382 1381 1380 1379 1378 1377 1375 1374 1373 1372 1370
1460 1458 1457 1456 1455 1454 1453 1452 1451 1450 1448 1447 1446 1445 1443 1442 1441 1439 1438 1437 1435 1434 1432 1431 1429 1427 1426 1424 1423 1421 1420 1419 1417 1416 1414 1412 1411 1409 1408 1406 1405 1403 1402 1401 1399 1398 1397 1396 1395 1394 1392 1391 1389 1387 1386 1384 1382 1381 1380 1378 1377 1376 1375 1374 1372 1371 1370 1369 1368
1458 1457 1456 1455 1454 1453 1452 1451 1450 1448 1447 1446 1445 1443 1442 1441 1439 1438 1437 1435 1434 1432 1431 1429 1427 1426 1424 1422 1421 1420 1418 1417 1416 1414 1412 1411 1409 1408 1406 1405 1403 1402 1400 1399 1398 1397 1395 1394 1393 1392 1390 1388 1387 1385 1383 1382 1380 1378 1377 1376 1374 1373 1372 1371 1370 1368 1367 1366 1365
1457 1456 1455 1454 1453 1452 1451 1450 1449 1447 1446 1445 1443 1442 1441 1439 1438 1437 1435 1434 1432 1431 1429 1428 1426 1425 1423 1421 1420 1418 1417 1415 1414 1413 1411 1410 1408 1407 1405 1403 1402 1400 1398 1397 1396 1395 1393 1392 1391 1389 1388 1386 1384 1383 1381 1380 1378 1376 1374 1373 1372 1370 1369 1368 1367 1366 1364 1363 1362
1456 1455 1454 1453 1452 1451 1450 1448 1447 1446 1445 1443 1442 1441 1440 1438 1437 1435 1434 1432 1431 1430 1428 1427 1425 1423 1422 1420 1419 1417 1416 1414 1412 1411 1410 1408 1407 1405 1404 1402 1401 1399 1397 1396 1395 1393 1392 1390 1389 1387 1386 1384 1382 1381 1379 1377 1376 1374 1372 1371 1369 1367 1366 1365 1364 1363 1362 1360 1359
1455 1454 1453 1452 1451 1450 1449 1447 1446 1445 1443 1442 1441 1440 1438 1437 1435 1434 1432 1431 1430 1428 1427 1425 1424 1422 1421 1419 1417 1416 1414 1413 1411 1409 1408 1407 1405 1404 1402 1401 1400 1398 1396 1395 1394 1392 1391 1390 1388 1386 1384 1383 1381 1379 1377 1376 1374 1372 1370 1368 1367 1365 1363 1362 1361 1360 1359 1357 1356
1454 1453 1452 1451 1450 1449 1447 1446 1445 1443 1442 1441 1440 1438 1437 1436 1434 1432 1431 1430 1428 1427 1425 1424 1422 1421 1419 1417 1416 1415 1413 1412 1410 1408 1407 1405 1404 1403 1402 1400 1399 1397 1396 1394 1392 1391 1390 1389 1387 1385 1383 1382 1380 1377 1376 1374 1372 1370 1368 1367 1365 1363 1361 1360 1358 1357 1356 1355 1354
1453 1452 1451 1450 1449 1447 1446 1445 1443 1442 1441 1439 1438 1437 1436 1434 1433 1431 1430 1428 1427 1425 1424 1422 1421 1419 1418 1416 1415 1413 1412 1411 1409 1407 1406 1404 1402 1401 1400 1399 1397 1396 1394 1393 1392 1390 1388 1387 1386 1384 1382 1381 1378 1376 1374 1372 1370 1368 1367 1365 1363 1362 1360 1357 1356 1354 1353 1352 1351
1452 1451 1450 1449 1447 1446 1445 1443 1442 1441 1439 1438 1437 1435 1434 1432 1431 1430 1428 1427 1425 1424 1422 1421 1419 1418 1416 1415 1413 1412 1411 1409 1408 1407 1405 1403 1402 1400 1399 1397 1396 1395 1393 1392 1390 1389 1387 1386 1384 1382 1381 1379 1377 1375 1372 1370 1368 1367 1365 1363 1362 1360 1358 1356 1354 1352 1351 1349 1348
1451 1450 1448 1447 1446 1445 1443 1442 1440 1439 1437 1436 1435 1433 1432 1431 1429 1428 1427 1425 1423 1422 1421 1419 1418 1416 1415 1413 1412 1411 1410 1408 1407 1405 1403 1402 1401 1399 1397 1396 1395 1393 1392 1391 1389 1387 1386 1384 1383 1381 1380 1378 1376 1374 1371 1369 1367 1365 1363 1362 1360 1358 1357 1355 1353 1351 1349 1347 1346
1450 1448 1447 1446 1444 1443 1442 1440 1439 1437 1436 1435 1433 1432 1430 1429 1428 1426 1425 1423 1422 1420 1419 1417 1416 1415 1414 1412 1411 1410 1408 1407 1405 1404 1402 1400 1399 1397 1396 1394 1393 1391 1390 1389 1387 1386 1384 1383 1381 1380 1378 1377 1375 1372 1370 1368 1366 1363 1362 1360 1358 1357 1355 1353 1351 1349 1347 1346 1344
1449 1447 1446 1444 1443 1442 1440 1439 1437 1436 1435 1433 1432 1430 1429 1427 1426 1424 1423 1422 1420 1419 1417 1416 1415 1413 1412 1411 1410 1408 1407 1405 1404 1402 1400 1399 1397 1395 1394 1392 1391 1389 1388 1387 1386 1384 1382 1381 1379 1378 1376 1375 1373 1371 1368 1366 1364 1362 1360 1358 1357 1355 1353 1352 1350 1348 1346 1344 1342
1447 1446 1445 1443 1442 1440 1439 1437 1436 1434 1433 1432 1430 1428 1427 1426 1424 1423 1421 1420 1418 1417 1416 1415 1413 1412 1411 1410 1408 1407 1406 1404 1402 1400 1399 1397 1395 1393 1392 1390 1389 1387 1386 1385 1383 1382 1381 1379 1377 1376 1374 1373 1371 1369 1367 1364 1362 1361 1359 1357 1355 1353 1352 1350 1348 1346 1344 1342 1340
1446 1445 1443 1442 1440 1439 1437 1436 1434 1433 1431 1430 1428 1427 1425 1424 1422 1421 1420 1418 1417 1415 1414 1412 1411 1410 1409 1407 1407 1405 1404 1402 1400 1398 1397 1395 1393 1391 1390 1388 1387 1385 1384 1383 1382 1380 1379 1377 1376 1374 1372 1371 1369 1367 1365 1362 1361 1359 1357 1355 1353 1352 1350 1348 1346 1344 1342 1341 1339
1445 1443 1442 1440 1439 1437 1436 1434 1433 1431 1430 1428 1427 1425 1424 1422 1421 1419 1418 1417 1415 1414 1412 1411 1410 1408 1407 1406 1405 1403 1402 1400 1398 1397 1395 1393 1391 1389 1387 1386 1385 1383 1382 1381 1379 1378 1377 1375 1373 1372 1370 1369 1367 1365 1362 1360 1358 1357 1355 1353 1352 1350 1348 1346 1344 1342 1341 1339 1337
1443 1442 1440 1439 1437 1436 1434 1432 1431 1429 1428 1426 1425 1423 1422 1421 1419 1417 1416 1415 1414 1412 1411 1410 1409 1407 1406 1405 1403 1402 1400 1398 1396 1394 1392 1391 1389 1387 1386 1384 1382 1381 1380 1379 1377 1376 1375 1373 1371 1370 1368 1367 1365 1362 1360 1358 1356 1354 1353 1351 1349 1348 1346 1344 1342 1341 1339 1337 1335
1442 1440 1439 1437 1436 1434 1432 1431 1429 1428 1426 1425 1423 1422 1421 1419 1418 1416 1415 1413 1412 1411 1409 1408 1407 1406 1405 1403 1402 1400 1398 1396 1394 1392 1391 1389 1387 1385 1383 1382 1381 1379 1378 1377 1375 1374 1372 1371 1369 1368 1366 1365 1362 1360 1358 1356 1354 1352 1350 1349 1347 1345 1343 1342 1340 1338 1337 1335 1333
1441 1439 1437 1436 1434 1433 1431 1429 1428 1426 1425 1423 1422 1420 1419 1417 1416 1415 1413 1412 1410 1409 1408 1407 1405 1404 1402 1401 1399 1398 1396 1394 1392 1390 1388 1387 1385 1383 1381 1380 1378 1377 1376 1375 1373 1372 1370 1369 1367 1366 1364 1362 1360 1358 1356 1354 1352 1350 1348 1346 1344 1343 1341 1340 1338 1336 1334 1332 1331
1439 1438 1436 1434 1433 1431 1430 1428 1426 1425 1423 1422 1420 1419 1417 1416 1414 1413 1412 1411 1409 1407 1406 1405 1403 1402 1401 1399 1397 1396 1394 1392 1390 1388 1386 1385 1383 1382 1380 1377 1376 1375 1374 1373 1371 1370 1368 1367 1366 1364 1362 1360 1358 1356 1354 1352 1349 1347 1346 1344 1342 1341 1339 1337 1335 1333 1332 1330 1328
1438 1437 1435 1433 1432 1430 1428 1427 1425 1423 1422 1420 1419 1418 1416 1415 1413 1412 1411 1410 1408 1406 1404 1403 1402 1400 1399 1397 1395 1393 1392 1390 1389 1387 1385 1383 1382 1380 1378 1376 1374 1373 1372 1371 1369 1368 1367 1365 1364 1362 1360 1358 1356 1354 1352 1349 1347 1345 1343 1342 1340 1338 1337 1335 1333 1331 1329 1327 1325
1437 1436 1434 1432 1430 1429 1427 1425 1424 1422 1421 1419 1417 1416 1415 1413 1412 1411 1409 1408 1407 1405 1403 1402 1400 1398 1397 1395 1393 1391 1389 1388 1387 1385 1383 1382 1380 1379 1377 1375 1372 1371 1370 1369 1368 1366 1365 1363 1362 1360 1358 1356 1354 1352 1349 1347 1345 1343 1341 1340 1338 1336 1334 1332 1331 1328 1326 1324 1322
1436 1434 1433 1431 1429 1427 1426 1424 1423 1421 1420 1418 1417 1415 1414 1412 1411 1409 1408 1407 1406 1404 1402 1400 1398 1397 1395 1394 1392 1389 1387 1386 1385 1383 1382 1380 1378 1377 1375 1373 1371 1370 1368 1367 1366 1364 1363 1361 1360 1358 1356 1354 1352 1350 1348 1346 1343 1341 1340 1338 1336 1334 1331 1329 1328 1326 1323 1321 1319
1434 1433 1431 1430 1428 1426 1425 1423 1421 1420 1419 1417 1416 1414 1412 1411 1410 1408 1407 1405 1404 1402 1401 1399 1397 1395 1393 1392 1390 1387 1385 1383 1382 1381 1380 1378 1377 1375 1373 1372 1370 1368 1367 1365 1364 1362 1361 1359 1357 1356 1354 1352 1350 1348 1346 1344 1342 1340 1338 1336 1334 1332 1329 1327 1325 1323 1321 1319 1316